, AK

(GMT )
Valdez Airport

Weather History for PAVD - March, 2013

Change the Weather History Date:

Friday, March 1, 2013

  Actual Average Record
Temperature  
Mean Temperature 34 °F -  
Max Temperature 37 °F 32 °F 44 °F (2015)
Min Temperature 30 °F 19 °F 1 °F (1972)
Degree Days  
Heating Degree Days 32    
Moisture  
Dew Point 28 °F    
Average Humidity 83    
Maximum Humidity 100    
Minimum Humidity 48    
Precipitation  
Precipitation 0.21 in - - ()
Sea Level Pressure  
Sea Level Pressure 29.70 in    
Wind  
Wind Speed 3 mph (East)    
Max Wind Speed 10 mph    
Max Gust Speed 16 mph    
Visibility 5 miles    
Events Snow    
Averages and records for this station are not official NWS values.
T = Trace of Precipitation, MM = Missing Value Source: NWS Daily Summary

Daily Weather History Graph

Daily Weather History Graph

Search for Another Location

Airport or City:

Astronomy

Mar. 01, 2013 Rise Set
Actual Time 7:44 AM AKST 6:11 PM AKST
Civil Twilight 7:00 AM AKST 6:54 PM AKST
Nautical Twilight 6:11 AM AKST 7:44 PM AKST
Astronomical Twilight 5:20 AM AKST 8:35 PM AKST
Moon No Moon Rise 8:14 AM AKST (3/1)
Length of Visible Light 11h 54m
Length of Day
10h 27m
Waning Gibbous, 82% of the Moon is Illuminated
Mar 1
Waning Gibbous
Mar 4
Last Quarter
Mar 11
New
Mar 19
First Quarter
Mar 27
Full

Hourly Weather History & Observations

Time (AKST) Temp. Windchill Dew Point Humidity Pressure Visibility Wind Dir Wind Speed Gust Speed Precip Events Conditions
12:16 AM 37.4 °F 34.9 °F 21.2 °F 52% 29.30 in 10.0 mi East 3.5 mph - N/A   Overcast
12:56 AM 37.4 °F 32.1 °F 21.2 °F 52% 29.32 in 10.0 mi NNE 6.9 mph - N/A   Overcast
1:16 AM 37.4 °F - 19.4 °F 48% 29.33 in 10.0 mi Calm Calm - N/A   Overcast
1:36 AM 37.4 °F 32.8 °F 19.4 °F 48% 29.34 in 10.0 mi SSE 5.8 mph - N/A   Overcast
1:56 AM 37.4 °F 30.3 °F 19.4 °F 48% 29.35 in 10.0 mi ESE 10.4 mph 16.1 mph N/A   Overcast
2:16 AM 37.4 °F 31.4 °F 19.4 °F 48% 29.37 in 10.0 mi East 8.1 mph - N/A   Overcast
2:36 AM 37.4 °F 30.8 °F 19.4 °F 48% 29.38 in 10.0 mi ESE 9.2 mph - N/A   Overcast
3:16 AM 35.6 °F 29.9 °F 21.2 °F 56% 29.39 in 10.0 mi East 6.9 mph - N/A   Mostly Cloudy
3:36 AM 35.6 °F 31.7 °F 23.0 °F 60% 29.40 in 10.0 mi ESE 4.6 mph - N/A   Mostly Cloudy
3:56 AM 35.6 °F - 21.2 °F 56% 29.40 in 10.0 mi Calm Calm - N/A   Mostly Cloudy
4:16 AM 33.8 °F - 19.4 °F 56% 29.42 in 10.0 mi Calm Calm - N/A   Overcast
4:36 AM 33.8 °F 28.6 °F 21.2 °F 60% 29.43 in 10.0 mi ENE 5.8 mph - N/A   Overcast
4:56 AM 35.6 °F 30.7 °F 21.2 °F 56% 29.45 in 10.0 mi ENE 5.8 mph - N/A   Overcast
5:16 AM 33.8 °F 27.0 °F 23.0 °F 65% 29.46 in 10.0 mi East 8.1 mph - N/A   Overcast
5:36 AM 33.8 °F 27.0 °F 24.8 °F 70% 29.48 in 10.0 mi East 8.1 mph - N/A   Overcast
5:56 AM 32.0 °F 26.4 °F 26.6 °F 80% 29.49 in 5.0 mi North 5.8 mph - N/A   Overcast
6:16 AM 32.0 °F - 26.6 °F 80% 29.50 in 5.0 mi Calm Calm - N/A   Overcast
6:36 AM 32.0 °F - 28.4 °F 87% 29.51 in 5.0 mi Calm Calm - N/A   Overcast
6:56 AM 32.0 °F - 26.6 °F 80% 29.53 in 7.0 mi Calm Calm - N/A   Overcast
7:16 AM 30.2 °F 25.4 °F 24.8 °F 80% 29.54 in 7.0 mi ESE 4.6 mph - N/A   Overcast
7:24 AM 30.2 °F 25.4 °F 26.6 °F 86% 29.55 in 3.0 mi ENE 4.6 mph - N/A Snow Light Snow
7:36 AM 30.2 °F 26.7 °F 26.6 °F 86% 29.55 in 3.0 mi ENE 3.5 mph - N/A   Overcast
7:56 AM 30.2 °F 26.7 °F 26.6 °F 86% 29.57 in 2.0 mi East 3.5 mph - N/A   Overcast
8:16 AM 30.2 °F - 26.6 °F 86% 29.58 in 2.0 mi Calm Calm - N/A   Overcast
8:36 AM 30.2 °F - 28.4 °F 93% 29.59 in 2.0 mi Calm Calm - 0.01 in   Overcast
8:56 AM 30.2 °F - 26.6 °F 86% 29.60 in 6.0 mi Calm Calm - 0.01 in   Overcast
9:16 AM 30.2 °F 26.7 °F 26.6 °F 86% 29.62 in 6.0 mi South 3.5 mph - 0.01 in   Overcast
9:36 AM 30.2 °F 25.4 °F 28.4 °F 93% 29.63 in 6.0 mi East 4.6 mph - 0.01 in   Overcast
9:56 AM 30.2 °F - 28.4 °F 93% 29.65 in 6.0 mi Calm Calm - 0.01 in   Overcast
10:16 AM 30.2 °F - 28.4 °F 93% 29.65 in 6.0 mi Calm Calm - N/A   Overcast
10:36 AM 30.2 °F - 28.4 °F 93% 29.68 in 6.0 mi Calm Calm - N/A   Overcast
10:56 AM 30.2 °F 26.7 °F 30.2 °F 100% 29.69 in 1.5 mi SSW 3.5 mph - 0.01 in   Overcast
11:16 AM 30.2 °F - 28.4 °F 93% 29.71 in 1.5 mi Calm Calm - 0.01 in   Overcast
11:36 AM 30.2 °F - 28.4 °F 93% 29.72 in 0.5 mi Calm Calm - 0.02 in   Overcast
11:56 AM 30.2 °F - 28.4 °F 93% 29.74 in 0.5 mi Calm Calm - 0.05 in   Overcast
12:16 PM 32.0 °F - 28.4 °F 87% 29.76 in 1.5 mi Calm Calm - N/A   Overcast
12:36 PM 32.0 °F - 30.2 °F 93% 29.77 in 1.5 mi Calm Calm - N/A   Overcast
12:56 PM 32.0 °F 27.5 °F 30.2 °F 93% 29.79 in 3.0 mi West 4.6 mph - N/A   Overcast
1:16 PM 32.0 °F 26.4 °F 30.2 °F 93% 29.81 in 3.0 mi WSW 5.8 mph - N/A   Overcast
1:36 PM 32.0 °F 27.5 °F 30.2 °F 93% 29.82 in 3.0 mi West 4.6 mph - N/A   Overcast
1:56 PM 33.8 °F 28.6 °F 30.2 °F 87% 29.83 in 3.0 mi WNW 5.8 mph - N/A   Mostly Cloudy
2:16 PM 33.8 °F - 30.2 °F 87% 29.83 in 3.0 mi Calm Calm - N/A   Mostly Cloudy
2:36 PM 33.8 °F 28.6 °F 30.2 °F 87% 29.85 in 3.0 mi NW 5.8 mph - N/A   Mostly Cloudy
2:56 PM 33.8 °F 29.6 °F 30.2 °F 87% 29.85 in 3.0 mi West 4.6 mph - N/A   Mostly Cloudy
3:16 PM 32.0 °F - 30.2 °F 93% 29.86 in 3.0 mi Calm Calm - N/A   Mostly Cloudy
3:36 PM 33.8 °F - 30.2 °F 87% 29.87 in 3.0 mi Calm Calm - N/A   Mostly Cloudy
3:56 PM 33.8 °F - 30.2 °F 87% 29.86 in 2.0 mi Calm Calm - N/A   Overcast
4:16 PM 33.8 °F - 30.2 °F 87% 29.87 in 6.0 mi Calm Calm - N/A   Mostly Cloudy
4:36 PM 33.8 °F - 32.0 °F 93% 29.88 in 6.0 mi Calm Calm - N/A   Mostly Cloudy
4:56 PM 33.8 °F - 32.0 °F 93% 29.88 in 0.8 mi Calm Calm - 0.02 in   Unknown
5:16 PM 32.0 °F - 30.2 °F 93% 29.88 in 0.8 mi Calm Calm - 0.02 in   Unknown
5:36 PM 32.0 °F - 30.2 °F 93% 29.88 in 0.8 mi Calm Calm - 0.03 in   Unknown
5:56 PM 33.8 °F 30.8 °F 32.0 °F 93% 29.89 in 0.8 mi NNE 3.5 mph - 0.03 in   Overcast
6:16 PM 33.8 °F - 32.0 °F 93% 29.90 in 0.8 mi Calm Calm - 0.01 in   Overcast
6:36 PM 32.0 °F - 30.2 °F 93% 29.90 in 0.8 mi Calm Calm - 0.02 in   Overcast
6:56 PM 32.0 °F - 30.2 °F 93% 29.91 in 0.5 mi Calm Calm - 0.03 in   Unknown
7:16 PM 32.0 °F - 30.2 °F 93% 29.92 in 1.5 mi Calm Calm - 0.03 in   Overcast
7:36 PM 33.8 °F - 33.8 °F 100% 29.92 in 1.5 mi Calm Calm - 0.04 in   Overcast
7:56 PM 33.8 °F - 32.0 °F 93% 29.93 in 3.0 mi Calm Calm - 0.04 in   Overcast
8:16 PM 33.8 °F - 30.2 °F 87% 29.93 in 3.0 mi Calm Calm - N/A   Overcast
8:36 PM 33.8 °F - 30.2 °F 87% 29.94 in 3.0 mi Calm Calm - N/A   Overcast
8:56 PM 33.8 °F - 30.2 °F 87% 29.94 in 4.0 mi Calm Calm - N/A   Overcast
9:16 PM 33.8 °F - 30.2 °F 87% 29.95 in 4.0 mi Calm Calm - N/A   Overcast
9:36 PM 33.8 °F - 32.0 °F 93% 29.95 in 4.0 mi Calm Calm - N/A   Overcast
9:56 PM 33.8 °F - 32.0 °F 93% 29.95 in 7.0 mi Calm Calm - N/A   Overcast
10:16 PM 32.0 °F 27.5 °F 30.2 °F 93% 29.95 in 10.0 mi ESE 4.6 mph - N/A   Overcast
10:36 PM 32.0 °F - 30.2 °F 93% 29.96 in 10.0 mi Calm Calm - N/A   Overcast
10:56 PM 32.0 °F - 32.0 °F 100% 29.96 in 8.0 mi Calm Calm - N/A   Overcast
11:16 PM 32.0 °F - 32.0 °F 100% 29.97 in 10.0 mi Calm Calm - N/A   Overcast
11:36 PM 32.0 °F - 30.2 °F 93% 29.97 in 8.0 mi Calm Calm - N/A   Overcast
11:56 PM 32.0 °F - 30.2 °F 93% 29.97 in 3.0 mi Calm Calm - 0.01 in   Overcast